Voltar ao catálogo

STARLINK-33664

AtivoComunicaçõesVLEO
NORAD 63415·PAYLOAD·🇺🇸 United States

Lançado Mar 31, 2025 de Cape Canaveral Space Force Station

Loading…

Próximas Passagens (próximas 24 horas)

TLE

AtualizadoSource: CelesTrak SupGP

Época: Sep 14, 2026, 22:54 UTC

1 63415C 25065S   26257.95465278 -.00010022  00000+0 -36311-3 0  2575
2 63415  43.0023 118.1570 0001330 273.7525 160.0203 15.27571693    13

Acompanhe STARLINK-33664 em tempo real com AllMySat

Download on the App Store